{"data":{"norad_id":54661,"intl_designator":"2022-166V","name":"ONEWEB-0595","alt_names":[],"object_type":"PAYLOAD","status":"ACTIVE","operator":null,"country":"UK","launch_date":"2022-12-08","launch_site_code":"AFETR","launch_vehicle":null,"mission":null,"orbit_class":"UNKNOWN","rcs_meters":null,"size_class":null,"mass_kg":null,"dimensions":null,"purposes":["comms"],"wikipedia_slug":null,"has_3d_model":false,"image_url":null,"decayed_at":null,"tle_current":{"epoch":"2026-05-25T00:24:20.521152Z","epoch_age_seconds":67621,"freshness":"FRESH","line1":"1 54661U 22166V   26145.01690418 -.00000013  00000+0 -62299-4 0  9993","line2":"2 54661  87.9261 248.5813 0001834 105.6774 254.4563 13.21825494168478","mean_motion":13.21825494,"eccentricity":0.0001834,"inclination_deg":87.9261,"raan_deg":248.5813,"arg_perigee_deg":105.6774,"mean_anomaly_deg":254.4563,"bstar":-6.2299e-5,"rev_number":16847,"period_min":108.94025017193,"perigee_km":1176.3695460036,"apogee_km":1179.141047298,"semimajor_km":7555.8922966508,"source":"CELESTRAK","updated_at":"2026-05-25T13:38:22.633934Z"}}}